sat.trackr.live / text

‹ back to catalog

SITRO-AIS 16

NORAD 61737 · 2024-199C

PAYLOAD ACTIVE UNKNOWN

§ Identity

Operator
Country
CIS
Launch date
2024-11-04
Launch site
VOSTO
Launch vehicle
Mass (kg)
RCS (m²)

External: N2YO · Heavens-Above · Gunter

§ Orbital elements

Epoch: 2026-09-22T21:28:35.676768Z

Period
96.13 min
Inclination
97.3195°
Eccentricity
0.0008619
Mean motion
14.97994798 rev/d
Perigee alt
567.1 km
Apogee alt
579.1 km
Semi-major
6,951.2 km
B*
2.0062e-4
RAAN
99.1412°
Arg perigee
93.5029°
Mean anomaly
266.7180°
Rev number
14,644

§ Raw data

SITRO-AIS 161 61737U 24199C   26265.89485737  .00002316  00000+0  20062-3 0  99952 61737  97.3195  99.1412 0008619  93.5029 266.7180 14.97994798146444

JSON: /api/v1/satellites/61737 · /tle

For live sub-satellite position, see the globe view (requires WebGL).

§ Visibility from observer

Set your observer location to see the next 7 days of passes ≥ 10°. The values pass through the URL so the page stays shareable.

No JS? Fill the form by hand. The geolocation button needs JavaScript.

§ Radio — SatNOGS DB

ModeDescriptionDownlinkUplink
GMSK USP Mode U - GMSK2k4 - USP 401.075 MHz

1 transmitter · refreshed weekly from db.satnogs.org